Location: Creola (historical)
(38.1334°N, 100.5024°W)
Time: 07:40:40
(UTC+00:00)

Cosmos 2237 - Pass Details

Date: 18 October 2021
Orbit: 845 x 856 km, 70.8° (Epoch: 30 November)

Event Time Altitude Azimuth Distance (km) Brightness Sun altitude
Rises 12:15:24 0° 337° (NNW) 3,435 7.1 -8.3°
Reaches altitude 10° 12:17:52 10° 337° (NNW) 2,494 6.4 -7.8°
Maximum altitude 12:23:37 88° 250° (WSW) 861 4.3 -6.7°
Drops below altitude 10° 12:29:19 10° 160° (SSE) 2,475 7.0 -5.6°
Sets 12:31:46 0° 160° (SSE) 3,405 7.8 -5.1°
